Probability
0 0 0 0 0 0 0 0 0 0 0 0 0 0 0 0 0 0 0 0 0 0 0 0 0 0 0 0 0 0 0 0 0 0 0 0 0 0 0 0 0 0 0 0 0 0 0 0 0
0 0 0 0 0 0 0 0 0 0 0 0 0 0 0 0 0 0 0 0 0 0 0 0 0 0 0 0 0 0 0 0 0 0 0 0 0 0 0 0 0 0 0 0 0 0 0 0 0
0 0 0 0 0 0 0 0 0 0 0 0 0 0 0 0 0 0 0 0 0 0 0 0 0 0 0 0 0 0 0 0 0 0 0 0 0 0 0 0 0 0 0 0 0 0 0 0 0
0 0 0 0 0 0 0 0 0 0 0 0 0 0 0 0 0 0 0 0 0 0 0 0 0 0 0 0 0 0 0 0 0 0 0 0 0 0 0 0 0 0 0 0 0 0 0 0 0
0 0 0 0 0 0 0 0 0 0 0 0 0 0 0 0 0 0 0 0 0 0 0 0 0 0 0 0 0 0 0 0 0 0 0 0 0 0 0 0 0 0 0 0 0 0 0 0 0
0 0 0 0 0 0 0 0 0 0 0 0 0 0 0 0 0 0 0 0 0 0 0 0 0 0 0 0 0 0 0 0 0 0 0 0 0 0 0 0 0 0 0 0 0 0 0 0 0
0 0 0 0 0 0 0 0 0 0 0 0 0 0 0 0 0 0 0 0 0 0 0 0 0 0 0 0 0 0 0 0 0 0 0 0 0 0 0 0 0 0 0 0 0 0 0 0 0
0 0 0 0 0 0 0 0 0 0 0 0 0 0 0 0 0 0 0 0 0 0 0 0 0 0 0 0 0 0 0 0 0 0 0 0 0 0 0 0 0 0 0 0 0 0 0 0 0
0 0 0 0 0 0 0 0 0 0 0 0 0 0 0 0 0 0 0 0 0 0 0 0 0 0 0 0 0 0 0 0 0 0 0 0 0 0 0 0 0 0 0 0 0 0 0 0 0
0 0 0 0 0 0 0 0 0 0 0 0 0 0 0 0 0 0 0 0 0 0 0 0 0 0 0 0 0 0 0 0 0 0 0 0 0 0 0 0 0 0 0 0 0 0 0 0 0
0 0 0 0 0 0 0 0 0 0 0 0 0 0 0 0 0 0 0 0 0 0 0 0 0 0 0 0 0 0 0 0 0 0 0 0 0 0 0 0 0 0 0 0 0 0 0 0 0
0 0 0 0 0 0 0 0 0 0 0 0 0 0 0 0 0 0 0 0 0 0 0 0 0 0 0 0 0 0 0 0 0 0 0 0 0 0 0 0 0 0 0 0 0 0 0 0 0
0 0 0 0 0 0 0 0 0 0 0 0 0 0 0 0 0 0 0 0 0 0 0 0 0 0 0 0 0 0 0 0 0 0 0 0 0 0 0 0 0 0 0 0 0 0 0 0 0
0 0 0 0 0 0 0 0 0 0 0 0 0 0 0 0 0 0 0 0 0 0 0 0 0 0 0 0 0 0 0 0 0 0 0 0 0 0 0 0 0 0 0 0 0 0 0 0 0
0 0 0 0 0 0 0 0 0 0 0 0 0 0 0 0 0 0 0 0 0 0 0 0 0 0 0 0 0 0 0 0 0 0 0 0 0 0 0 0 0 0 0 0 0 0 0 0 0
0 0 0 0 0 0 0 0 0 0 0 0 0 0 0 0 0 0 0 0 0 0 0 0 0 0 0 0 0 0 0 0 0 0 0 0 0 0 0 0 0 0 0 0 0 0 0 0 0
0 0 0 0 0 0 0 0 0 0 0 0 0 0 0 0 0 0 0 0 0 0 0 0 0 0 0 0 0 0 0 0 0 0 0 0 0 0 0 0 0 0 0 0 0 0 0 0 0
0 0 0 0 0 0 0 0 0 0 0 0 0 0 0 0 0 0 0 0 0 0 0 0 0 0 0 0 0 0 0 0 0 0 0 0 0 0 0 0 0 0 0 0 0 0 0 0 0
0 0 0 0 0 0 0 0 0 0 0 0 0 0 0 0 0 0 0 0 0 0 0 0 0 0 0 0 0 0 0 0 0 0 0 0 0 0 0 0 0 0 0 0 0 0 0 0 0
0 0 0 0 0 0 0 0 0 0 0 0 0 0 0 0 0 0 0 0 0 0 0 0 0 0 0 0 0 0 0 0 0 0 0 0 0 0 0 0 0 0 0 0 0 0 0 0 0
0 0 0 0 0 0 0 0 0 0 0 0 0 0 0 0 0 0 0 0 0 0 0 0 0 0 0 0 0 0 0 0 0 0 0 0 0 0 0 0 0 0 0 0 0 0 0 0 0
0 0 0 0 0 0 0 0 0 0 0 0 0 0 0 0 0 0 0 0 0 0 0 0 0 0 0 0 0 0 0 0 0 0 0 0 0 0 0 0 0 0 0 0 0 0 0 0 0
0 0 0 0 0 0 0 0 0 0 0 0 0 0 0 0 0 0 0 0 0 0 0 0 0 0 0 0 0 0 0 0 0 0 0 0 0 0 0 0 0 0 0 0 0 0 0 0 0
0 0 0 0 0 0 0 0 0 0 0 0 0 0 0 0 0 0 0 0 0 0 0 0 0 0 0 0 0 0 0 0 0 0 0 0 0 0 0 0 0 0 0 0 0 0 0 0 0
0 0 0 0 0 0 0 0 0 0 0 0 0 0 0 0 0 0 0 0 0 0 0 0 0 0 0 0 0 0 0 0 0 0 1 2 1 1 0 1 1 1 0 0 0 0 0 0 0
0 0 0 0 0 0 0 0 0 0 0 0 0 0 0 0 0 0 0 0 0 0 0 0 0 0 0 0 0 0 0 0 0 1 2 3 3 2 2 2 2 2 1 1 1 0 0 0 0
0 0 0 0 0 0 0 0 0 0 0 0 0 0 0 0 0 0 0 0 0 0 0 0 0 0 0 0 0 0 0 0 0 1 3 4 4 3 3 3 3 3 3 2 2 1 1 0 0
0 0 0 0 0 0 0 0 0 0 0 0 0 0 0 0 0 0 0 0 0 0 0 0 0 0 0 0 0 0 0 0 1 2 3 3 4 3 3 3 3 3 3 3 3 3 2 1 0
0 0 0 0 0 0 0 0 0 0 0 0 0 0 0 0 0 0 0 0 0 0 0 0 0 0 0 0 0 0 0 0 1 2 3 3 3 3 3 3 3 3 3 3 3 3 3 2 1
0 0 0 0 0 0 0 0 0 0 0 0 0 0 0 0 0 0 0 0 0 0 0 0 0 0 0 0 0 0 0 0 1 2 3 3 3 3 3 3 3 3 3 3 3 3 3 1 0
Wind_Speed
11 8 3 3 2 1 3 3 1 2 2 2 2 2 2 2 3 4 4 8 10 12 11 11 9 10 11 11 12 12 12 12 12 12 12 12 12 12 12 12 12 13 14 14 15 15 15 15 15
9 6 3 2 3 2 3 2 2 2 2 3 3 2 3 1 2 3 5 9 11 12 11 11 10 10 11 11 11 12 12 12 12 11 11 11 11 12 12 11 11 12 13 13 14 14 14 14 14
6 4 3 1 1 0 3 2 1 2 3 2 2 2 2 1 2 3 5 11 11 11 10 10 9 10 11 11 11 11 11 12 12 11 11 11 11 11 11 11 11 11 12 13 13 13 13 13 13
5 2 1 2 2 1 1 2 1 3 4 1 2 2 1 2 2 3 8 11 11 11 10 11 8 10 11 10 10 10 11 11 11 11 11 11 11 11 10 10 10 10 11 12 12 12 12 12 12
2 2 2 3 2 1 1 1 2 4 3 2 2 2 2 3 2 5 10 11 11 10 9 10 8 8 10 10 10 10 10 10 11 11 11 11 10 10 10 10 9 10 10 11 11 11 11 11 11
1 2 4 5 3 1 1 1 3 3 2 2 2 2 3 3 3 6 9 10 10 10 9 9 8 7 8 9 9 10 10 10 10 11 11 10 10 10 10 9 9 9 10 10 10 10 10 10 10
2 3 5 4 4 3 1 1 2 3 3 2 2 3 3 4 3 6 8 9 9 9 9 9 10 10 8 7 8 8 9 9 10 10 10 9 9 9 8 7 8 9 9 10 10 10 9 9 9
1 3 5 5 6 4 2 2 0 3 1 1 2 3 2 3 5 7 7 7 8 8 8 8 9 9 10 10 8 8 8 8 8 9 8 8 8 8 7 7 7 8 8 9 9 9 9 8 8
3 6 8 7 6 3 2 2 1 1 1 2 1 2 4 4 8 8 7 7 8 8 8 8 9 9 8 8 8 9 8 7 8 8 8 8 8 8 7 8 6 7 7 8 9 9 8 7 7
5 8 9 4 3 2 2 2 1 3 4 4 4 2 2 5 8 10 10 11 11 11 11 9 10 9 9 7 7 8 8 8 8 7 9 8 6 6 6 7 5 5 6 7 8 8 8 6 5
5 7 5 4 2 2 2 3 2 5 6 5 4 3 3 6 9 11 12 12 12 11 11 11 10 10 9 7 6 5 5 6 8 9 9 7 6 5 5 5 6 6 7 7 7 8 5 5 3
5 5 3 3 2 2 4 3 5 8 8 4 5 4 5 9 11 13 13 12 11 12 12 12 11 10 10 9 7 6 6 6 6 8 9 7 5 6 6 5 6 5 5 6 6 4 5 5 5
8 5 4 4 4 5 6 9 9 11 11 8 6 6 9 10 11 12 11 11 12 13 13 13 13 12 11 10 8 7 8 7 8 7 8 9 7 7 7 5 5 6 5 6 6 6 6 6 6
5 6 5 5 6 4 8 11 9 12 8 8 8 9 9 10 11 11 12 13 14 14 14 13 14 14 13 11 10 9 8 8 8 8 10 11 8 7 7 7 6 6 6 6 6 7 6 6 5
3 6 8 7 6 4 5 13 13 12 8 10 10 10 10 11 11 12 13 13 14 14 13 14 14 14 14 14 13 9 9 9 9 9 10 12 10 9 8 7 7 7 7 7 6 7 6 6 6
4 7 9 6 5 5 7 15 9 6 8 11 12 12 11 12 13 13 13 13 13 13 13 14 12 14 15 14 13 10 9 10 9 9 10 13 13 12 10 8 8 8 7 7 7 7 7 7 6
7 10 11 7 5 5 10 14 8 7 10 13 13 13 13 13 14 13 13 13 13 13 13 14 15 15 15 15 12 11 10 11 10 10 10 12 14 14 11 9 9 9 8 8 8 8 8 7 7
10 11 10 10 4 7 12 17 15 12 13 16 16 15 14 15 15 13 12 12 12 12 13 14 14 15 14 12 11 10 11 11 10 10 11 14 13 14 13 10 11 10 9 9 9 10 9 7 6
8 10 12 9 4 7 14 19 19 17 16 18 17 16 16 16 15 13 12 11 11 12 13 14 15 15 13 11 11 11 12 12 11 11 14 15 15 15 14 11 11 11 10 11 12 10 10 9 6
11 12 12 8 5 7 14 21 21 19 19 18 18 17 16 16 14 13 11 10 10 12 13 14 15 15 15 13 12 10 11 10 12 11 13 16 16 16 14 15 12 12 11 13 13 12 9 8 8
16 16 13 9 5 7 11 18 16 15 15 16 17 17 16 15 15 13 12 11 10 11 12 12 15 15 16 16 12 10 9 9 10 13 13 17 18 18 16 17 15 13 13 12 14 14 14 10 9
16 14 12 10 8 7 5 14 14 12 14 14 15 14 14 14 13 13 12 12 11 11 11 12 14 15 15 15 14 16 14 14 16 13 12 15 17 18 18 17 17 15 13 14 14 14 13 13 10
8 6 9 10 10 11 10 13 15 8 14 13 11 11 11 11 12 12 12 12 12 10 10 11 12 13 14 15 17 17 17 15 12 13 15 15 15 17 18 18 16 16 14 15 15 14 15 12 12
6 5 4 7 7 13 15 15 16 10 13 10 9 9 10 9 10 11 11 10 10 9 8 9 11 12 12 15 17 19 20 18 17 16 14 13 12 13 18 18 17 16 15 16 16 15 16 14 14
11 8 5 7 9 12 9 13 17 10 11 11 11 11 10 9 10 9 10 10 10 10 9 9 10 11 12 14 16 18 20 20 20 18 16 14 12 12 16 17 17 16 16 16 15 15 15 16 16
17 14 10 9 8 7 7 15 14 7 10 11 11 11 10 10 9 9 10 10 10 10 9 9 10 11 11 13 14 16 18 15 14 17 15 15 13 13 15 17 17 17 17 16 15 13 14 13 15
12 14 10 5 3 7 10 12 13 8 11 11 10 9 9 9 9 10 10 10 10 10 10 10 11 11 11 12 13 14 16 16 16 16 16 14 13 11 15 16 17 17 17 16 15 13 14 13 14
9 9 7 9 8 11 12 14 13 8 9 9 8 7 8 9 9 10 10 11 11 10 10 10 10 11 11 11 11 10 13 15 15 14 15 15 15 14 14 15 16 16 16 16 16 13 13 14 14
13 12 10 8 7 9 11 12 7 9 7 7 7 7 9 10 10 11 11 11 11 10 10 10 9 10 10 10 10 12 12 13 14 14 15 14 14 14 15 15 15 15 16 15 15 15 14 16 15
15 15 15 10 10 8 9 13 2 4 5 5 8 9 10 10 11 11 11 11 10 10 10 9 9 9 9 9 10 11 11 12 12 13 14 13 13 13 13 13 14 14 14 14 15 15 15 15 15
Wind_Direction
325 329 293 264 232 150 101 106 149 155 148 108 148 210 246 292 331 37 85 149 146 150 153 155 152 146 142 139 138 135 132 129 125 124 121 119 115 113 111 109 107 106 104 102 100 97 95 93 92
329 323 285 286 255 188 122 129 168 125 86 123 154 202 225 201 33 78 141 155 156 152 156 156 145 148 146 144 143 141 138 135 132 130 127 125 122 120 118 115 112 111 109 106 104 101 99 98 96
324 329 326 276 245 247 116 122 126 93 132 174 169 224 293 27 97 138 142 156 158 156 158 148 150 152 151 149 148 147 144 142 139 136 134 131 129 126 123 120 118 116 114 111 108 106 104 102 100
317 297 277 247 171 70 37 61 139 156 158 196 240 200 150 38 25 127 146 160 161 160 162 153 158 156 155 153 152 151 149 147 145 142 141 138 134 131 129 126 122 121 119 116 113 111 111 108 106
327 298 246 222 200 134 288 331 206 192 174 170 230 252 131 92 84 135 155 165 165 165 166 161 161 159 158 158 157 156 154 153 151 148 146 142 140 138 136 133 130 128 124 121 120 117 117 115 111
311 263 243 233 206 186 214 212 197 204 184 166 225 242 109 101 133 150 162 171 171 169 170 167 161 163 162 163 163 162 160 159 155 153 151 149 148 146 145 143 141 137 133 131 128 125 123 121 117
259 243 249 242 230 218 146 174 214 217 202 188 231 233 125 125 138 154 167 172 174 176 177 177 176 176 170 166 166 165 164 162 158 155 155 154 151 150 148 150 149 147 143 140 137 134 130 127 124
288 233 227 229 231 223 133 172 262 264 245 67 224 254 88 109 140 153 166 175 180 186 188 186 186 187 184 181 171 167 164 164 159 154 151 150 149 150 147 160 155 154 151 148 145 143 139 132 130
228 230 232 226 224 210 152 195 129 294 231 183 207 343 24 114 148 158 172 185 189 196 199 196 195 195 194 190 178 177 171 166 162 160 152 163 178 174 171 172 158 159 155 154 153 152 141 136 132
211 231 235 225 225 208 180 241 261 228 238 217 201 178 117 156 173 183 192 198 200 201 202 203 204 200 199 196 190 193 191 186 192 188 181 191 191 186 183 153 158 154 153 158 156 148 148 174 161
211 238 236 215 218 239 236 254 246 250 249 242 250 246 187 191 199 206 209 209 210 209 206 208 207 206 204 201 201 200 198 198 201 199 195 196 194 186 190 178 173 177 177 179 164 170 183 187 181
217 229 236 223 194 233 250 257 249 244 258 294 292 276 219 215 215 216 217 216 214 214 212 210 208 208 210 209 205 205 205 204 204 201 200 197 198 200 195 196 191 189 192 191 190 191 190 192 192
222 227 232 251 253 256 257 254 265 257 261 273 278 253 236 232 231 229 226 224 221 219 216 212 210 210 209 211 213 211 212 211 209 207 204 206 205 204 201 201 199 201 199 197 198 199 195 200 203
223 236 250 254 251 246 253 263 254 255 260 260 257 253 248 245 243 239 230 227 224 224 220 214 211 212 211 211 213 213 214 213 214 212 210 209 211 207 204 204 204 207 205 205 206 206 204 207 209
214 243 254 242 241 241 257 258 241 254 260 261 260 259 257 254 249 244 239 235 232 229 225 219 215 213 213 215 216 216 214 213 214 215 214 210 211 209 206 209 207 207 205 204 208 209 213 216 215
199 231 242 222 221 216 232 259 250 251 256 263 265 265 264 261 255 252 249 244 240 234 228 223 216 216 215 216 216 217 216 214 216 215 214 212 212 211 209 211 212 205 202 203 207 208 211 216 220
210 230 236 235 214 215 229 261 264 257 263 268 269 268 268 268 264 257 250 246 242 237 232 226 219 219 218 217 217 218 218 218 218 216 215 212 211 212 212 214 213 204 204 207 208 212 215 218 220
211 223 233 237 218 233 246 259 266 266 266 268 269 269 268 267 266 264 258 251 245 241 235 230 225 222 219 217 218 220 221 221 220 218 218 214 211 210 213 216 214 206 207 209 209 212 215 223 221
226 229 239 246 250 257 259 266 269 268 264 264 265 265 265 265 268 268 263 254 248 242 236 232 228 223 217 213 213 215 219 218 219 219 219 217 214 209 210 213 212 208 212 213 211 212 213 216 210
224 235 246 260 253 261 274 273 271 265 260 259 262 264 265 269 269 267 265 258 248 245 240 235 231 227 219 217 216 220 221 222 221 218 220 218 216 213 211 212 211 209 213 216 213 208 211 210 200
225 233 240 251 287 262 285 276 259 255 252 254 255 259 263 266 269 272 271 266 258 250 244 238 236 231 225 221 220 221 223 226 221 220 218 217 216 215 212 214 213 211 211 213 212 208 211 210 205
229 227 235 243 256 260 262 284 271 262 259 253 252 253 258 262 266 271 272 271 266 260 254 247 242 237 230 222 220 218 219 221 222 221 220 217 215 216 215 215 214 213 212 215 213 210 212 214 210
220 196 214 229 244 262 243 261 271 251 258 253 250 252 257 264 271 273 272 273 274 271 262 254 249 243 235 226 223 223 226 229 230 225 224 220 215 215 215 215 215 215 215 216 215 210 212 213 215
168 164 206 228 239 251 238 240 268 239 247 256 255 259 265 269 274 275 276 277 278 278 271 261 256 251 240 232 228 226 228 230 231 228 225 221 218 216 215 215 215 216 216 217 216 214 213 214 217
182 182 200 211 219 241 220 231 255 247 241 251 263 268 272 276 280 284 284 287 286 284 278 268 262 259 249 239 234 231 231 232 231 231 228 224 220 217 215 212 215 215 217 217 215 214 215 216 217
195 200 210 221 229 240 205 236 255 252 246 252 258 265 271 276 281 285 288 290 289 288 282 274 268 263 256 246 241 237 234 233 234 232 230 227 224 221 217 213 215 216 216 216 215 214 215 215 218
188 213 228 246 265 263 240 251 267 244 246 248 252 258 267 279 286 291 295 296 294 292 288 280 273 268 261 253 247 242 237 234 235 234 231 231 229 224 220 216 215 216 216 215 213 215 214 213 216
206 182 184 208 222 242 249 249 250 228 230 236 246 259 275 286 291 295 297 297 295 293 290 284 274 268 264 259 252 248 242 238 237 235 232 230 229 224 221 219 217 217 216 214 214 215 214 213 215
185 194 202 206 221 232 253 253 237 237 229 238 254 265 278 285 290 294 299 302 301 298 294 288 282 277 272 265 259 252 248 243 239 236 235 233 231 228 225 221 218 217 216 213 214 216 213 215 216
208 205 200 208 219 229 252 261 201 226 248 256 274 285 289 293 298 303 306 305 303 300 297 291 286 281 276 272 266 259 254 247 241 238 236 232 230 227 225 222 219 218 216 213 213 215 214 215 216